COSMOS 1275 DEB, 42150

Orbit data source: Space-Track

COSMOS 1275 DEB, 42150 is space debris in LEO originally from a launch on Thu, 04 Jun 1981 UTC launched from the Plesetsk Missile And Space Complex (PKMTR). Debris objects in space refer to the collection of defunct objects orbiting the Earth. Examples of debris include non-operational satellites, rocket bodies, and fragments generated from explosions, collisions, or faulty payload assembly.

Loading next visibility...
Identifier
42150, 1981-053RN
Orbit
LEO
Country
Flag of CISCIS
Related business
Manufacturer
Unknown
Mission
Spacecraft
Bus & Motor
Unknown
Mass
Unknown
Launch date (UTC)
1981-06-04 (44 years ago)
Launch vehicle
Unknown
Launch site
Plesetsk Missile And Space Complex (PKMTR)
Object type
Payload
Rocket body
Debris
Shape & HBR
Unknown shape, 0.1 m
Radar Cross Section
Small (<0.1 m²)

Expand to show TLE details & history
Last TLE update: 5 months ago

TLE from 5 months ago
0 COSMOS 1275 DEB
1 42150U 81053RN  25127.95832612  .00001052  00000-0  13986-2 0  9999
2 42150  83.0712   2.8402 0216089 228.4775 129.7655 13.50670505 44063
Epoch: 2025-05-07T22:59Z
TLE epoch observation values (Epoch: 2025-05-07T22:59:59.376Z)
Latitude
0.00004°
Longitude
151.8071°
Altitude
1,177.639 km
Speed
7.213 km/s
True Right ascension
00h 11m 21s
True Declination
0° 00' 00"
Sunlit
Object was in daylight at epoch
Visualization orbit readout
Latitude
Unknown
Longitude
Unknown
Altitude
Unknown
Speed
Unknown
Apparent Right ascension
Unknown
Apparent Declination
Unknown
Sunlit
N/A
Visualization observer readout
Local Sidereal Time
21:08:49
Azimuth
Unknown
Elevation
Unknown
Doppler factor
Unknown
Orbital elements
Apogee altitude
1,227.849 km
Perigee altitude
906.088 km
Semi-major axis
7,445.105 km
Eccentricity
0.02161
Inclination
83.0712°
RAAN
2.8402°
Arg. of periapsis
228.4775°
True anomaly
131.6362°
Mean anomaly
129.7655°
Eccentric anomaly
130.70409°
Mean motion
3.3786 °/min
Orbital period
106.55 mins
BSTAR
0.0013986
Loading maneuver chart data...
Computing Atmospheric mass density...
Loading historical data...
Loading historical data...
Loading historical data...
Loading historical data...
Loading historical data...
Loading historical data...
Loading historical data...

Documentation

Showing up to 5 results
|